Regional Weather Roundup
Issued by NWS Raleigh/Durham, NC

Home | Current Version | Previous Version | Text Only | Print | Product List | Glossary On
Versions: 1 2 3 4 5 6 7 8 9 10 11 12 13 14 15 16 17 18 19 20 21 22 23 24 25 26 27 28 29 30 31 32 33 34 35 36 37 38 39 40 41 42 43 44 45 46 47 48 49 50
000
ASUS42 KRAH 301110
RWRRAH
NORTH CAROLINA WEATHER ROUNDUP
NATIONAL WEATHER SERVICE RALEIGH NC
700 AM EDT THU JUL 30 2015

NOTE: "FAIR" INDICATES FEW OR NO CLOUDS BELOW 12,000 FEET WITH NO
SIGNIFICANT WEATHER AND/OR OBSTRUCTIONS TO VISIBILITY.

NCZ001-053-055-056-065-067-301200-
WESTERN NORTH CAROLINA

CITY           SKY/WX    TMP DP  RH WIND       PRES   REMARKS
ASHEVILLE      PTCLDY    70  67  90 N5        30.07R FOG
JEFFERSON      FOG       65  65 100 CALM      30.11R VSB 1/4
MORGANTON      FOG       69  69 100 CALM      30.05R VSB 3/4
HICKORY        PTCLDY    73  70  90 CALM      30.00R
RUTHERFORDTON  CLEAR     71  71 100 CALM      30.00S FOG
MOUNT AIRY     PTCLDY    72  70  93 CALM      30.02R FOG
BOONE          FOG       64  64 100 CALM      30.12R VSB 3/4
$$

NCZ021-022-025-041-071-084-088-301200-
CENTRAL NORTH CAROLINA

CITY           SKY/WX    TMP DP  RH WIND       PRES   REMARKS
CHARLOTTE      PTCLDY    75  72  90 CALM      29.98R
GREENSBORO     MOCLDY    74  73  97 SW3       29.97R
WINSTON-SALEM  CLEAR     76  74  93 CALM      29.99R FOG
RALEIGH-DURHAM MOCLDY    75  70  84 CALM      29.97R
FORT BRAGG     CLEAR     75  70  85 CALM      29.95S
FAYETTEVILLE   CLEAR     77  70  79 NW5       29.95S
BURLINGTON     CLEAR     73  71  93 CALM      29.97R
LAURINBURG     CLEAR     72  69  90 CALM      29.97R
$$

NCZ011-015-027-028-043-044-047-080-103-301200-
NORTHEASTERN NORTH CAROLINA

CITY           SKY/WX    TMP DP  RH WIND       PRES   REMARKS
ROCKY MT-WILSO CLEAR     70  69  97 CALM      29.97R
GREENVILLE     CLEAR     70  70 100 CALM      29.98R FOG
WASHINGTON     CLEAR     70  69  97 CALM      29.96R
ELIZABETH CITY CLEAR     75  74  96 CALM      29.96R
MANTEO         CLEAR     78  76  94 E3        29.95R
CAPE HATTERAS  PTCLDY    78  75  90 CALM      29.94R
$$

NCZ078-087-090-091-093-098-101-301200-
SOUTHEASTERN NORTH CAROLINA

CITY           SKY/WX    TMP DP  RH WIND       PRES   REMARKS
LUMBERTON      CLEAR     73  69  87 CALM      29.95R
GOLDSBORO      CLEAR     72  71  97 CALM      29.94S
KINSTON        CLEAR     70  70 100 CALM      29.97R
KENANSVILLE    CLEAR     69  68  96 CALM      29.97R
NEW BERN       MOCLDY    75  73  93 N3        29.95R
CHERRY POINT   MOCLDY    79  76  90 N7        29.94R
BEAUFORT       CLEAR     80  79  96 NE7       29.92R
JACKSONVILLE   FOG       73  71  93 N5        29.93S VSB 1/2
WILMINGTON     PTCLDY    72  71  97 CALM      29.93S
$$




USA.gov is the U.S. government's official web portal to all federal, state and local government web resources and services.